TimeEST,TemperatureF,Dew PointF,Humidity,Sea Level PressureIn,VisibilityMPH,Wind Direction,Wind SpeedMPH,Gust SpeedMPH,PrecipitationIn,Events,Conditions,WindDirDegrees,DateUTC
12:53 AM,26.1,24.1,92,30.54,6.0,Calm,Calm,-,N/A,,Clear,0,2012-11-14 05:53:00
1:53 AM,26.1,23.0,88,30.53,5.0,Calm,Calm,-,N/A,,Clear,0,2012-11-14 06:53:00
2:01 AM,26.6,23.0,86,30.52,1.8,Calm,Calm,-,N/A,,Clear,0,2012-11-14 07:01:00
2:16 AM,24.8,23.0,93,30.52,3.0,Calm,Calm,-,N/A,,Clear,0,2012-11-14 07:16:00
2:53 AM,23.0,21.0,92,30.55,6.0,Calm,Calm,-,N/A,,Clear,0,2012-11-14 07:53:00
3:53 AM,25.0,23.0,92,30.55,6.0,Calm,Calm,-,N/A,,Clear,0,2012-11-14 08:53:00
4:53 AM,24.1,21.9,91,30.53,6.0,NNE,3.5,-,N/A,,Clear,30,2012-11-14 09:53:00
5:53 AM,24.1,21.9,91,30.56,6.0,Calm,Calm,-,N/A,,Clear,0,2012-11-14 10:53:00
6:53 AM,24.1,19.9,84,30.56,6.0,ENE,3.5,-,N/A,,Clear,60,2012-11-14 11:53:00
7:53 AM,26.1,23.0,88,30.57,10.0,NE,3.5,-,N/A,,Clear,40,2012-11-14 12:53:00
8:53 AM,30.0,25.0,82,30.57,10.0,NNE,4.6,-,N/A,,Clear,30,2012-11-14 13:53:00
9:53 AM,34.0,27.0,75,30.57,9.0,ENE,5.8,-,N/A,,Clear,60,2012-11-14 14:53:00
10:53 AM,39.0,26.1,60,30.55,10.0,East,4.6,-,N/A,,Clear,100,2012-11-14 15:53:00
11:53 AM,42.1,26.1,53,30.53,10.0,ENE,8.1,-,N/A,,Clear,70,2012-11-14 16:53:00
12:53 PM,43.0,26.1,51,30.51,10.0,ENE,4.6,-,N/A,,Clear,60,2012-11-14 17:53:00
1:53 PM,44.1,26.1,49,30.48,10.0,NNE,4.6,-,N/A,,Clear,20,2012-11-14 18:53:00
2:53 PM,44.1,26.1,49,30.45,10.0,ENE,9.2,-,N/A,,Clear,70,2012-11-14 19:53:00
3:53 PM,44.1,27.0,51,30.44,10.0,NE,9.2,-,N/A,,Clear,50,2012-11-14 20:53:00
4:53 PM,41.0,27.0,57,30.45,10.0,NE,5.8,-,N/A,,Clear,40,2012-11-14 21:53:00
5:53 PM,37.0,28.0,70,30.45,10.0,NE,4.6,-,N/A,,Clear,50,2012-11-14 22:53:00
6:53 PM,37.9,28.0,68,30.45,10.0,NE,4.6,-,N/A,,Clear,40,2012-11-14 23:53:00
7:53 PM,37.9,28.0,68,30.44,10.0,NNE,3.5,-,N/A,,Clear,20,2012-11-15 00:53:00
8:53 PM,35.1,27.0,72,30.44,10.0,Calm,Calm,-,N/A,,Clear,0,2012-11-15 01:53:00
9:53 PM,33.1,28.0,82,30.43,10.0,Calm,Calm,-,N/A,,Clear,0,2012-11-15 02:53:00
10:53 PM,30.9,28.0,89,30.43,9.0,ENE,4.6,-,N/A,,Clear,70,2012-11-15 03:53:00
11:53 PM,27.0,25.0,92,30.41,8.0,Calm,Calm,-,N/A,,Clear,0,2012-11-15 04:53:00